Location: Daerah Kuala Lumpur
(3.1167°N, 101.6833°E)
Time: 10:33:10
(UTC+00:00)

Cosmos 1455 Rocket - Pass Details

Date: 05 August 2024
Orbit: 600 x 625 km, 82.5° (Epoch: 14 September)

Event Time Altitude Azimuth Distance (km) Brightness Sun altitude
Rises 12:10:48 0° 352° (N) 2,832 6.8 -11.4°
Reaches altitude 10° 12:13:00 10° 350° (N) 1,932 6.0 -11.9°
Maximum altitude 12:17:15 70° 267° (W) 638 3.3 -12.9°
Drops below altitude 10° 12:21:31 10° 183° (S) 1,944 5.5 -13.9°
Sets 12:23:45 0° 180° (S) 2,851 6.3 -14.5°
